Regional Weather Roundup
Issued by NWS Little Rock, AR

Home | Current Version | Previous Version | Graphics & Text | Print | Product List | Glossary On
Versions: 1 2 3 4 5 6 7 8 9 10 11 12 13 14 15 16 17 18 19 20 21 22 23 24 25 26 27 28 29 30
000
ASUS44 KLZK 281505
RWRLZK

WEATHER ROUNDUP FOR ARKANSAS
NATIONAL WEATHER SERVICE LITTLE ROCK AR
1000 AM CDT WED JUN 28 2017

NOTE: "FAIR" INDICATES FEW OR NO CLOUDS BELOW 12,000 FEET WITH NO
SIGNIFICANT WEATHER AND/OR OBSTRUCTIONS TO VISIBILITY.

ARZ001-003-010-029-281600-
NORTHWEST ARKANSAS

CITY           SKY/WX    TMP DP  RH WIND       PRES   REMARKS
FAYETTEVILLE   SUNNY     77  66  68 S15       30.02F
FORT SMITH     SUNNY     80  68  66 VRB7      30.00S
HARRISON       MOSUNNY   79  65  62 S12G17    30.05R
BENTONVILLE    SUNNY     79  64  61 S10G17    30.02F
ROGERS         MOSUNNY   79  65  62 S16       30.02F HAZE
SILOAM SPGS    MOSUNNY   79  64  61 S13G22    30.01F
HIGHFILL       SUNNY     79  65  62 S17       30.01F
SPRINGDALE     SUNNY     77  66  69 S15G23    30.04F
$$

ARZ004-005-016-281600-
NORTH CENTRAL ARKANSAS

CITY           SKY/WX    TMP DP  RH WIND       PRES   REMARKS
BATESVILLE     SUNNY     81  66  61 SE7       30.04
FLIPPIN        SUNNY     79  63  57 S5        30.01S
MTN HOME       SUNNY     77  66  68 S8        30.03F
$$

ARZ040-041-281600-
WEST CENTRAL ARKANSAS

CITY           SKY/WX    TMP DP  RH WIND       PRES   REMARKS
MENA           SUNNY     82  72  69 SW6       30.03F HX  87
MOUNT IDA      SUNNY     80  63  55 SE8       30.01F
$$

ARZ009-017-025-026-028-281600-
NORTHEAST ARKANSAS

CITY           SKY/WX    TMP DP  RH WIND       PRES   REMARKS
CORNING        FAIR      81  70  69 S9        30.07R
JONESBORO      SUNNY     80  68  66 S12       30.05F
WALNUT RIDGE   SUNNY     79  64  61 S12       30.06R
BLYTHEVILLE    SUNNY     80  66  62 S13       30.08S
$$

ARZ022-023-033-042-044-281600-
CENTRAL ARKANSAS

CITY           SKY/WX    TMP DP  RH WIND       PRES   REMARKS
LITTLE ROCK    MOSUNNY   81  68  64 S10       30.04F
N LITTLE ROCK    N/A     80  68  67 S5        30.03F
JACKSONVILLE   SUNNY     81  70  68 S6        30.04S HX  85
CONWAY           N/A     81  68  65 VRB7      30.01F
SEARCY         CLOUDY    79  70  74 S8        30.06F
HOT SPRINGS    SUNNY     81  67  62 SW6       30.03F
RUSSELLVILLE   SUNNY     79  66  64 VRB6      30.02F
CLINTON        FAIR      79  68  69 SE8       30.03F
$$

ARZ036-281600-
EAST ARKANSAS

CITY           SKY/WX    TMP DP  RH WIND       PRES   REMARKS
WEST MEMPHIS   SUNNY     79  68  69 S10       30.05F
$$

ARZ050-053-066-070-073-281600-
SOUTHWEST ARKANSAS

CITY           SKY/WX    TMP DP  RH WIND       PRES   REMARKS
ARKADELPHIA    FAIR      80  69  69 CALM      30.03F
CAMDEN         SUNNY     82  66  57 SE5       30.03S HX  85
TEXARKANA      SUNNY     82  69  64 SW7       30.01F HX  85
EL DORADO      SUNNY     81  67  62 SE9       30.03F
DE QUEEN       SUNNY     82  72  71 VRB3      29.99F HX  87
$$

ARZ056-057-069-281600-
SOUTHEAST ARKANSAS

CITY           SKY/WX    TMP DP  RH WIND       PRES   REMARKS
PINE BLUFF     SUNNY     81  68  64 S7        30.04S
STUTTGART      SUNNY     82  61  47 S9        30.06S
MONTICELLO     SUNNY     81  68  64 SE7       30.04F

$$






USA.gov is the U.S. government's official web portal to all federal, state and local government web resources and services.